Regional Weather Roundup
Issued by NWS Jackson, KY

Home | Current Version | Previous Version | Graphics & Text | Print | Product List | Glossary On
Versions: 1 2 3 4 5 6 7 8 9 10 11 12 13 14 15 16 17 18 19 20 21 22 23 24 25 26 27 28 29 30 31 32 33 34 35 36 37 38 39 40 41 42 43 44 45 46 47 48 49 50
338
ASUS43 KJKL 240110
RWRJKL

EAST KENTUCKY HOURLY WEATHER ROUNDUP
NATIONAL WEATHER SERVICE JACKSON KY
800 PM EST MON JAN 23 2017

NOTE: "FAIR" INDICATES FEW OR NO CLOUDS BELOW 12,000 FEET WITH
NO SIGNIFICANT WEATHER AND/OR OBSTRUCTIONS TO VISIBILITY.

* THESE REPORTS ARE NOT UNDER NWS QUALITY CONTROL AND MAY NOT
  REPORT WEATHER SUCH AS PRECIPITATION AND FOG.

KYZ079-080-083-085-087-088-110-112-115-119-120-240200
...EASTERN KENTUCKY...

CITY           SKY/WX    TMP DP  RH WIND       PRES   REMARKS
JACKSON        LGT RAIN  46  44  93 NW6       29.57R FOG
LONDON         LGT RAIN  45  43  93 NW9       29.63R FOG
SOMERSET*      CLOUDY    43  43 100 W12G17    29.69R
MONTICELLO*    LGT RAIN  44  42  93 NW15      29.72R FOG
WILLIAMSBURG*  CLOUDY    45  45 100 W12G21    29.65R
MIDDLESBORO*   DRIZZLE   47  45  90 NW8       29.62R
HARLAN APT*    CLOUDY    45  43  93 SW8       29.58R
PIKE CO APT*   CLOUDY    44  44 100 NW10      29.53R
BIG SANDY APT* DRIZZLE   46  46 100 NW7       29.54R
MOREHEAD APT*  CLOUDY    46  45  93 NW9G16    29.60R FOG
ASHLAND*       CLOUDY    45  43  93 NE6       29.56R
$$

KYZ035-036-041-042-044-050-067-078-099-240200
...CENTRAL KENTUCKY...

CITY           SKY/WX    TMP DP  RH WIND       PRES   REMARKS
MT STERLING*   CLOUDY    45  45 100 N13G18    29.63R FOG
FLEMING/MASON* CLOUDY    45  45  99 NW10      29.62R
DANVILLE*      CLOUDY    43  41  93 NW13G21   29.69R
LEXINGTON      CLOUDY    44  42  93 NW16G25   29.66R FOG
FRANKFORT      CLOUDY    45  41  86 NW13      29.67R
LOUISVILLE     CLOUDY    46  40  79 NW9       29.72R
LEBANON*       CLOUDY    45  41  87 W8G16     29.71R
GLASGOW*       CLOUDY    42  37  83 W8        29.75R
BOWLING GREEN  CLOUDY    43  36  76 W12       29.78R
$$

KYZ091>093-OHZ055-061-077-WVZ005-015-034-035-042-240200
...SOUTHERN OHIO/WEST VIRGINIA...

CITY           SKY/WX    TMP DP  RH WIND       PRES   REMARKS
COVINGTON      DRIZZLE   45  44  97 NW13      29.65R FOG
COLUMBUS       CLOUDY    45  42  89 NE6       29.59S
DAYTON         LGT RAIN  41  40  96 N14       29.65R FOG
WILMINGTON     CLOUDY    44  43  96 N13       29.61R FOG
HUNTINGTON     CLOUDY    44  41  89 NE10      29.55R
CHARLESTON     DRIZZLE   41  38  89 N6        29.53R
BECKLEY        LGT RAIN  40  38  93 NW6       29.47R FOG
BLUEFIELD      CLOUDY    38  36  92 CALM      29.46R
LOGAN CO APT*  CLOUDY    43  41  93 CALM      29.51R
$$

VAZ002-007-008-TNZ017-027-036-066-071-240200
...SOUTHWEST VIRGINIA/EAST TENNESSEE...

CITY           SKY/WX    TMP DP  RH WIND       PRES   REMARKS
WISE*          DRIZZLE   43  43 100 NW9G17    29.52R
JONESVILLE*    CLOUDY    46  46 100 W8        29.59R FOG
ABINGDON*      DRIZZLE   48  45  88 NW10      29.50R
BRISTOL        CLOUDY    49  45  86 W12       29.52R
MORRISTOWN*    CLOUDY    48  45  87 NW10G16   29.59R
SEVIERVILLE*   CLOUDY    48  43  81 W5        29.62R
KNOXVILLE      CLOUDY    49  43  80 W16       29.64R
LAFOLLETTE*    CLOUDY    46  45  93 VRB7G14   29.67R FOG
OAK RIDGE      LGT RAIN  48  45  89 W5        29.67R FOG
CROSSVILLE     CLOUDY    40  39  97 NW12      29.70R FOG     WCI  33
NASHVILLE      CLOUDY    45  36  70 N14       29.78R
$$

...KEY TO REMARKS...
VSB - VISIBILITY IN MILES
WCI - WIND CHILL INDEX
HX  - HEAT INDEX

$$




USA.gov is the U.S. government's official web portal to all federal, state and local government web resources and services.